Orbital Elements at Epoch 2459200.5 (2020-Dec-17.0) TDB
Reference: JPL 14 (heliocentric ecliptic J2000)
Element | Value | Uncertainty (1-sigma) | Units |
e | .1367052299746791 | 5.1626e-08 | |
a | 3.031922363520783 | 2.4196e-08 | au |
q | 2.617442719550302 | 1.4777e-07 | au |
i | 9.076060514435003 | 6.2051e-06 | deg |
node | 332.5675124634606 | 2.6279e-05 | deg |
peri | 225.2542946336024 | 3.5031e-05 | deg |
M | 108.0794535897868 | 2.1252e-05 | deg |
tp | 2458621.583162352679 (2019-May-18.08316235) | 0.00011558 | TDB |
period | 1928.304174668122 5.28 | 2.3083e-05 6.32e-08 | d yr |
n | .1866925377900814 | 2.2348e-09 | deg/d |
Q | 3.446402007491264 | 2.7503e-08 | au |
|
| | Orbit Determination Parameters
Additional Information
|